STARLINK-5609, 55348

Orbit data source: Space-Track

STARLINK-5609, 55348 is a payload satellite owned by SpaceX/Seattle (US) in LEO that was launched on Thu, 26 Jan 2023 UTC via an FALCON 9 launch vehicle from the Air Force Eastern Test Range (AFETR). Payload-class satellites include a variety of spacecraft equipped with specific instruments for various scientific and technological missions. These include communications satellites like Starlink; space stations such as the ISS; scientific satellites like the Hubble; Earth observation satellites from companies like Planet Labs, Umbra, and HawkEye 360; GPS; miniature CubeSats for education and research; and military/defense satellites.

Loading next visibility...
Identifier
55348, 2023-013T
Orbit
LEO
Country
Flag of USUS
Related business
Manufacturer
SpaceX/Seattle
Mission
Operational Commercial Communications
Bus & Motor
STARLINK, Unknown motor
Mass
305 kg wet, ~290 kg dry
Launch date (UTC)
2023-01-26 (3 years ago)
Launch vehicle
FALCON 9
Launch site
Air Force Eastern Test Range (AFETR)
Object type
Payload
Rocket body
Debris
Shape & HBR
Box + 1 Pan, 10.1 m
Radar Cross Section
13.562 m², Large (>1 m²)

Expand to show TLE details & history
Last TLE update: 1 day ago

TLE from 1 day ago
0 STARLINK-5609
1 55348U 23013T   25348.56000682  .00000398  00000-0  44526-4 0  9998
2 55348  43.0051  42.9080 0001030 274.4157  85.6568 15.02526771158904
Epoch: 2025-12-14T13:26Z
TLE epoch observation values (Epoch: 2025-12-14T13:26:24.589Z)
Latitude
0.00001°
Longitude
117.83438°
Altitude
558.832 km
Speed
7.584 km/s
True Right ascension
02h 51m 37s
True Declination
0° 00' 00"
Sunlit
Object was in full shadow at epoch
Visualization orbit readout
Latitude
Unknown
Longitude
Unknown
Altitude
Unknown
Speed
Unknown
Apparent Right ascension
Unknown
Apparent Declination
Unknown
Sunlit
N/A
Visualization observer readout
Local Sidereal Time
15:09:06
Azimuth
Unknown
Elevation
Unknown
Doppler factor
Unknown
Orbital elements
Apogee altitude
561.746 km
Perigee altitude
560.316 km
Semi-major axis
6,939.168 km
Eccentricity
0.0001
Inclination
43.0051°
RAAN
42.908°
Arg. of periapsis
274.4157°
True anomaly
85.66857°
Mean anomaly
85.6568°
Eccentric anomaly
85.66268°
Mean motion
3.75476 °/min
Orbital period
95.88 mins
BSTAR
0.000044526
Loading maneuver chart data...
Computing Atmospheric mass density...
Loading historical data...
Loading historical data...
Loading historical data...
Loading historical data...
Loading historical data...
Loading historical data...
Loading historical data...

Documentation

Showing up to 5 results
|